N957JS TTCP-TAPA

Flight info

Callsign N957JS
Flight time 0h 59m
Altitude 23000
Route VODAN DCT BNE A324 FOF A312 DOM/N0494F240 A312 KASKI DCT GADES DCT EMALI DCT BOPAR
Aircraft C750/M-SBDE3FGHRWXY/S

Departure

Time 2026-04-25 01:38
Airport A.N.R. Robinson International Airport (TTCP)

Arrival

Time 2026-04-25 02:37
Airport V. C. Bird International Airport (TAPA)
Time Latitude Longitude Altitude Speed Heading
2026-04-25 01:06 11.15200 -60.84063 40 ft 0 kts
2026-04-25 01:18 11.15199 -60.84063 40 ft 0 kts
2026-04-25 01:28 11.15195 -60.84063 40 ft 3 kts
2026-04-25 01:28 11.15169 -60.84065 40 ft 4 kts
2026-04-25 01:28 11.15142 -60.84068 41 ft 4 kts
2026-04-25 01:29 11.15115 -60.84070 42 ft 4 kts
2026-04-25 01:29 11.15109 -60.84070 43 ft 0 kts
2026-04-25 01:34 11.15111 -60.84071 43 ft 1 kts
2026-04-25 01:34 11.15122 -60.84078 43 ft 3 kts 313°
2026-04-25 01:34 11.15124 -60.84102 43 ft 4 kts 262°
2026-04-25 01:34 11.15115 -60.84116 43 ft 2 kts 228°
2026-04-25 01:35 11.15105 -60.84127 44 ft 3 kts 228°
2026-04-25 01:35 11.15085 -60.84150 45 ft 6 kts 228°
2026-04-25 01:35 11.15053 -60.84190 46 ft 9 kts 240°
2026-04-25 01:35 11.15046 -60.84259 45 ft 10 kts 274°
2026-04-25 01:36 11.15031 -60.84330 44 ft 11 kts 240°
2026-04-25 01:36 11.15010 -60.84404 44 ft 11 kts 278°
2026-04-25 01:36 11.15056 -60.84420 44 ft 7 kts 48°
2026-04-25 01:36 11.15056 -60.84376 44 ft 0 kts 92°
2026-04-25 01:37 11.15056 -60.84377 44 ft 0 kts 92°
2026-04-25 01:37 11.15054 -60.84337 44 ft 14 kts 94°
2026-04-25 01:37 11.15040 -60.84158 46 ft 38 kts 94°
2026-04-25 01:38 11.15006 -60.83685 45 ft 103 kts 94°
2026-04-25 01:38 11.14935 -60.82795 400 ft 125 kts 95°
2026-04-25 01:38 11.14844 -60.81992 1307 ft 116 kts 100°
2026-04-25 01:38 11.14782 -60.81118 1840 ft 134 kts 96°
2026-04-25 01:39 11.14733 -60.80134 2345 ft 147 kts 96°
2026-04-25 01:39 11.14664 -60.79065 2992 ft 156 kts 96°
2026-04-25 01:39 11.14585 -60.77946 3715 ft 161 kts 95°
2026-04-25 01:39 11.14502 -60.76783 4455 ft 170 kts 95°
2026-04-25 01:40 11.14516 -60.75549 5167 ft 181 kts 78°
2026-04-25 01:40 11.15130 -60.74398 5866 ft 195 kts 52°
2026-04-25 01:40 11.16381 -60.73633 6228 ft 232 kts 17°
2026-04-25 01:40 11.18102 -60.73608 6610 ft 262 kts 358°
2026-04-25 01:41 11.19995 -60.73834 7139 ft 284 kts 355°
2026-04-25 01:41 11.21948 -60.74050 8074 ft 286 kts 357°
2026-04-25 01:41 11.23949 -60.74224 9060 ft 292 kts 357°
2026-04-25 01:41 11.25994 -60.74402 9910 ft 298 kts 357°
2026-04-25 01:42 11.28110 -60.74602 10395 ft 317 kts 356°
2026-04-25 01:42 11.30398 -60.74820 10539 ft 344 kts 355°
2026-04-25 01:42 11.32872 -60.75052 10751 ft 365 kts 356°
2026-04-25 01:42 11.35399 -60.75287 11559 ft 364 kts 355°
2026-04-25 01:43 11.37933 -60.75524 12310 ft 367 kts 355°
2026-04-25 01:43 11.40449 -60.75760 13007 ft 370 kts 355°
2026-04-25 01:43 11.43023 -60.75999 13727 ft 373 kts 355°
2026-04-25 01:43 11.45618 -60.76242 14328 ft 377 kts 355°
2026-04-25 01:44 11.48246 -60.76488 14863 ft 382 kts 355°
2026-04-25 01:44 11.50911 -60.76737 15436 ft 386 kts 355°
2026-04-25 01:44 11.53604 -60.76988 16009 ft 391 kts 355°
2026-04-25 01:44 11.56338 -60.77244 16575 ft 397 kts 355°
2026-04-25 01:45 11.59101 -60.77502 17211 ft 401 kts 355°
2026-04-25 01:45 11.61860 -60.77761 17755 ft 407 kts 355°
2026-04-25 01:45 11.64699 -60.78026 18402 ft 410 kts 355°
2026-04-25 01:45 11.67550 -60.78293 18979 ft 415 kts 355°
2026-04-25 01:46 11.70443 -60.78564 19558 ft 419 kts 354°
2026-04-25 01:46 11.73347 -60.78835 20245 ft 421 kts 354°
2026-04-25 01:46 11.76282 -60.79111 20761 ft 427 kts 354°
2026-04-25 01:46 11.79251 -60.79390 21446 ft 429 kts 354°
2026-04-25 01:47 11.82196 -60.79664 22035 ft 434 kts 354°
2026-04-25 01:47 11.85220 -60.79947 22606 ft 439 kts 354°
2026-04-25 01:47 11.88265 -60.80233 23251 ft 442 kts 353°
2026-04-25 01:47 11.91349 -60.80523 23769 ft 447 kts 353°
2026-04-25 01:48 11.94445 -60.80813 24366 ft 448 kts 353°
2026-04-25 01:48 11.97570 -60.81106 24819 ft 454 kts 354°
2026-04-25 01:48 12.00717 -60.81401 25403 ft 455 kts 354°
2026-04-25 01:48 12.03880 -60.81698 25901 ft 460 kts 353°
2026-04-25 01:49 12.07084 -60.81999 26437 ft 462 kts 353°
2026-04-25 01:49 12.10249 -60.82295 26967 ft 466 kts 353°
2026-04-25 01:49 12.13494 -60.82600 27471 ft 470 kts 353°
2026-04-25 01:49 12.16759 -60.82908 28024 ft 473 kts 353°
2026-04-25 01:50 12.20048 -60.83217 28537 ft 476 kts 353°
2026-04-25 01:50 12.23359 -60.83527 29059 ft 480 kts 353°
2026-04-25 01:50 12.26692 -60.83840 29536 ft 483 kts 353°
2026-04-25 01:50 12.30053 -60.84157 30028 ft 487 kts 353°
2026-04-25 01:51 12.33443 -60.84476 30414 ft 490 kts 353°
2026-04-25 01:51 12.36852 -60.84796 30780 ft 494 kts 353°
2026-04-25 01:51 12.40237 -60.85114 31235 ft 495 kts 353°
2026-04-25 01:51 12.43665 -60.85437 31785 ft 494 kts 353°
2026-04-25 01:52 12.47093 -60.85760 32278 ft 495 kts 353°
2026-04-25 01:52 12.50522 -60.86083 32785 ft 495 kts 353°
2026-04-25 01:52 12.53954 -60.86406 33284 ft 496 kts 353°
2026-04-25 01:52 12.57393 -60.86730 33785 ft 496 kts 353°
2026-04-25 01:53 12.60833 -60.87054 34256 ft 497 kts 353°
2026-04-25 01:53 12.64271 -60.87377 34743 ft 496 kts 353°
2026-04-25 01:53 12.67660 -60.87697 35230 ft 495 kts 353°
2026-04-25 01:53 12.71089 -60.88021 35723 ft 495 kts 353°
2026-04-25 01:54 12.74518 -60.88344 36223 ft 494 kts 353°
2026-04-25 01:54 12.77939 -60.88667 36724 ft 494 kts 353°
2026-04-25 01:54 12.81358 -60.88990 37254 ft 493 kts 353°
2026-04-25 01:54 12.84773 -60.89312 37783 ft 492 kts 353°
2026-04-25 01:55 12.88182 -60.89634 38322 ft 492 kts 353°
2026-04-25 01:55 12.91583 -60.89955 38835 ft 491 kts 353°
2026-04-25 01:55 12.94933 -60.90271 39352 ft 489 kts 352°
2026-04-25 01:55 12.98307 -60.90590 39900 ft 486 kts 352°
2026-04-25 01:56 13.05157 -60.91242 39980 ft 504 kts 352°
2026-04-25 01:56 13.12273 -60.91912 39993 ft 522 kts 352°
2026-04-25 01:57 13.19631 -60.92611 39996 ft 539 kts 352°
2026-04-25 01:57 13.23327 -60.92960 39997 ft 543 kts 352°
2026-04-25 01:58 13.30843 -60.93670 39986 ft 543 kts 352°
2026-04-25 01:58 13.38377 -60.94386 39987 ft 544 kts 352°
2026-04-25 01:59 13.45913 -60.95100 39988 ft 543 kts 352°
2026-04-25 01:59 13.53410 -60.95811 39981 ft 540 kts 352°
2026-04-25 02:00 13.60846 -60.96519 39980 ft 541 kts 352°
2026-04-25 02:00 13.68336 -60.97230 39986 ft 541 kts 352°
2026-04-25 02:01 13.75839 -60.97850 39992 ft 541 kts 354°
2026-04-25 02:01 13.83360 -60.98228 39993 ft 541 kts 354°
2026-04-25 02:02 13.90883 -60.98642 39992 ft 541 kts 354°
2026-04-25 02:02 13.98351 -60.99030 39992 ft 541 kts 354°
2026-04-25 02:03 14.05869 -60.99433 40001 ft 541 kts 354°
2026-04-25 02:03 14.13386 -60.99831 39998 ft 540 kts 354°
2026-04-25 02:04 14.20892 -61.00231 40003 ft 540 kts 354°
2026-04-25 02:04 14.28352 -61.00632 40003 ft 540 kts 354°
2026-04-25 02:05 14.35860 -61.01034 40001 ft 541 kts 354°
2026-04-25 02:05 14.43376 -61.01438 40005 ft 540 kts 354°
2026-04-25 02:06 14.50884 -61.01841 40006 ft 540 kts 354°
2026-04-25 02:06 14.58333 -61.02302 39994 ft 538 kts 350°
2026-04-25 02:07 14.65563 -61.04058 40004 ft 532 kts 339°
2026-04-25 02:07 14.72703 -61.06188 40008 ft 536 kts 342°
2026-04-25 02:08 14.79922 -61.08140 40014 ft 536 kts 340°
2026-04-25 02:08 14.87090 -61.10245 40012 ft 536 kts 341°
2026-04-25 02:09 14.94252 -61.12224 40012 ft 536 kts 341°
2026-04-25 02:09 15.01435 -61.14299 40008 ft 536 kts 341°
2026-04-25 02:10 15.08654 -61.16327 40014 ft 538 kts 341°
2026-04-25 02:10 15.15860 -61.18387 40015 ft 537 kts 341°
2026-04-25 02:11 15.23028 -61.20422 40019 ft 538 kts 341°
2026-04-25 02:11 15.30243 -61.22476 40022 ft 538 kts 341°
2026-04-25 02:12 15.37456 -61.24532 40020 ft 539 kts 340°
2026-04-25 02:12 15.44657 -61.26584 40020 ft 540 kts 340°
2026-04-25 02:13 15.51894 -61.28648 40013 ft 539 kts 340°
2026-04-25 02:13 15.59061 -61.30897 40013 ft 537 kts 337°
2026-04-25 02:13 15.62519 -61.32093 40002 ft 510 kts 337°
2026-04-25 02:14 15.65800 -61.33215 39959 ft 483 kts 337°
2026-04-25 02:14 15.68947 -61.34283 39292 ft 473 kts 336°
2026-04-25 02:14 15.72082 -61.35359 37963 ft 478 kts 336°
2026-04-25 02:14 15.75256 -61.36454 36619 ft 482 kts 336°
2026-04-25 02:15 15.78403 -61.37526 35385 ft 483 kts 337°
2026-04-25 02:15 15.81592 -61.38609 34112 ft 483 kts 337°
2026-04-25 02:15 15.84795 -61.39706 32612 ft 484 kts 337°
2026-04-25 02:15 15.87987 -61.40802 31119 ft 483 kts 337°
2026-04-25 02:16 15.91179 -61.41894 29591 ft 483 kts 338°
2026-04-25 02:16 15.94340 -61.42971 28294 ft 473 kts 338°
2026-04-25 02:16 15.97434 -61.44030 26985 ft 464 kts 338°
2026-04-25 02:16 16.00477 -61.45077 25724 ft 457 kts 338°
2026-04-25 02:17 16.03473 -61.46105 24519 ft 450 kts 338°
2026-04-25 02:17 16.06431 -61.47117 23317 ft 444 kts 339°
2026-04-25 02:17 16.09299 -61.48099 22084 ft 436 kts 339°
2026-04-25 02:17 16.12145 -61.49076 20947 ft 425 kts 339°
2026-04-25 02:18 16.14921 -61.50030 19829 ft 416 kts 339°
2026-04-25 02:18 16.17642 -61.50964 18785 ft 407 kts 339°
2026-04-25 02:18 16.20304 -61.51878 17652 ft 399 kts 340°
2026-04-25 02:18 16.22918 -61.52776 16460 ft 393 kts 340°
2026-04-25 02:19 16.25492 -61.53660 15306 ft 387 kts 340°
2026-04-25 02:19 16.28056 -61.54445 14134 ft 382 kts 343°
2026-04-25 02:19 16.30560 -61.55191 13012 ft 377 kts 342°
2026-04-25 02:19 16.33043 -61.55985 11881 ft 370 kts 342°
2026-04-25 02:20 16.35495 -61.56737 10827 ft 364 kts 343°
2026-04-25 02:20 16.37889 -61.57437 10143 ft 349 kts 344°
2026-04-25 02:20 16.40135 -61.58106 10015 ft 322 kts 343°
2026-04-25 02:20 16.42200 -61.58737 10004 ft 298 kts 343°
2026-04-25 02:21 16.44180 -61.59338 10008 ft 296 kts 343°
2026-04-25 02:21 16.46175 -61.59937 10005 ft 301 kts 343°
2026-04-25 02:21 16.48179 -61.60540 9906 ft 295 kts 343°
2026-04-25 02:21 16.50091 -61.61224 9010 ft 297 kts 332°
2026-04-25 02:22 16.51656 -61.62608 8365 ft 292 kts 312°
2026-04-25 02:22 16.52965 -61.64194 7754 ft 287 kts 309°
2026-04-25 02:22 16.54242 -61.65798 7089 ft 287 kts 309°
2026-04-25 02:22 16.55506 -61.67387 6512 ft 283 kts 309°
2026-04-25 02:23 16.56750 -61.68960 5864 ft 281 kts 309°
2026-04-25 02:23 16.57978 -61.70519 5430 ft 269 kts 309°
2026-04-25 02:23 16.59111 -61.71974 4937 ft 254 kts 309°
2026-04-25 02:23 16.60223 -61.73419 4165 ft 262 kts 309°
2026-04-25 02:24 16.61325 -61.74860 3976 ft 247 kts 309°
2026-04-25 02:24 16.62406 -61.76279 3986 ft 251 kts 309°
2026-04-25 02:24 16.63494 -61.77703 3992 ft 254 kts 309°
2026-04-25 02:24 16.64595 -61.79142 3993 ft 253 kts 309°
2026-04-25 02:25 16.65694 -61.80573 3999 ft 254 kts 309°
2026-04-25 02:25 16.66807 -61.82021 4000 ft 256 kts 309°
2026-04-25 02:25 16.67916 -61.83468 3997 ft 254 kts 309°
2026-04-25 02:25 16.69029 -61.84918 4002 ft 256 kts 309°
2026-04-25 02:26 16.70126 -61.86365 3992 ft 259 kts 309°
2026-04-25 02:26 16.71227 -61.87830 3859 ft 251 kts 309°
2026-04-25 02:26 16.72311 -61.89272 3143 ft 254 kts 309°
2026-04-25 02:26 16.73364 -61.90662 2974 ft 231 kts 309°
2026-04-25 02:27 16.74352 -61.91961 2983 ft 229 kts 309°
2026-04-25 02:27 16.75336 -61.93258 2988 ft 224 kts 309°
2026-04-25 02:27 16.76317 -61.94546 2998 ft 227 kts 309°
2026-04-25 02:27 16.77311 -61.95850 2999 ft 232 kts 309°
2026-04-25 02:28 16.78298 -61.97152 2998 ft 238 kts 309°
2026-04-25 02:28 16.79316 -61.98508 2999 ft 231 kts 309°
2026-04-25 02:28 16.80310 -61.99806 3006 ft 235 kts 311°
2026-04-25 02:28 16.81695 -62.00626 2926 ft 227 kts 352°
2026-04-25 02:29 16.83201 -62.00401 2559 ft 225 kts 25°
2026-04-25 02:29 16.84617 -61.99774 2518 ft 218 kts 24°
2026-04-25 02:29 16.86096 -61.99389 2510 ft 220 kts 13°
2026-04-25 02:29 16.87619 -61.99166 2505 ft 220 kts 11°
2026-04-25 02:30 16.89133 -61.98931 2508 ft 221 kts 11°
2026-04-25 02:30 16.90650 -61.98662 2501 ft 222 kts 14°
2026-04-25 02:30 16.92180 -61.98388 2501 ft 223 kts 12°
2026-04-25 02:30 16.93720 -61.98120 2501 ft 223 kts 12°
2026-04-25 02:31 16.95255 -61.97854 2500 ft 228 kts 12°
2026-04-25 02:31 16.96799 -61.97586 2499 ft 225 kts 12°
2026-04-25 02:31 16.98334 -61.97317 2500 ft 223 kts 11°
2026-04-25 02:31 16.99871 -61.97049 2493 ft 225 kts 12°
2026-04-25 02:32 17.01400 -61.96783 2493 ft 223 kts 13°
2026-04-25 02:32 17.02895 -61.96447 2468 ft 220 kts 22°
2026-04-25 02:32 17.04059 -61.95476 2467 ft 213 kts 54°
2026-04-25 02:32 17.04840 -61.94192 2507 ft 199 kts 60°
2026-04-25 02:33 17.05513 -61.93045 2487 ft 174 kts 60°
2026-04-25 02:33 17.06135 -61.91996 2470 ft 167 kts 61°
2026-04-25 02:33 17.06745 -61.90964 2401 ft 170 kts 61°
2026-04-25 02:33 17.07354 -61.89938 2205 ft 167 kts 62°
2026-04-25 02:34 17.08000 -61.88839 1983 ft 179 kts 60°
2026-04-25 02:34 17.08618 -61.87816 1960 ft 152 kts 61°
2026-04-25 02:34 17.09148 -61.86981 1798 ft 131 kts 60°
2026-04-25 02:34 17.09641 -61.86233 1586 ft 123 kts 59°
2026-04-25 02:35 17.10098 -61.85490 1404 ft 121 kts 64°
2026-04-25 02:35 17.10540 -61.84719 1160 ft 125 kts 64°
2026-04-25 02:35 17.10963 -61.83945 972 ft 122 kts 64°
2026-04-25 02:35 17.11388 -61.83185 743 ft 120 kts 64°
2026-04-25 02:36 17.11817 -61.82421 552 ft 124 kts 64°
2026-04-25 02:36 17.12254 -61.81666 417 ft 123 kts 63°
2026-04-25 02:36 17.12707 -61.80896 269 ft 126 kts 62°
2026-04-25 02:36 17.13165 -61.80133 102 ft 124 kts 60°
2026-04-25 02:37 17.13584 -61.79417 68 ft 100 kts 57°
2026-04-25 02:37 17.13852 -61.78961 61 ft 58 kts 58°
2026-04-25 02:37 17.14047 -61.78627 61 ft 37 kts 58°
2026-04-25 02:37 17.14076 -61.78473 68 ft 19 kts 96°
2026-04-25 02:38 17.14075 -61.78357 70 ft 9 kts 94°
2026-04-25 02:38 17.14070 -61.78288 66 ft 10 kts 94°
2026-04-25 02:38 17.14066 -61.78253 68 ft 1 kts 98°
2026-04-25 02:38 17.14064 -61.78238 67 ft 3 kts 98°
2026-04-25 02:39 17.14061 -61.78205 66 ft 6 kts 96°
2026-04-25 02:39 17.14040 -61.78175 60 ft 0 kts 153°